OpenBCM V1.13 (Linux)

Packet Radio Mailbox

DB0FHN

[JN59NK Nuernberg]

 Login: GUEST





  
I0OJJ  > AMSAT    27.08.26 22:48l 331 Lines 15659 Bytes #999 (0) @ WW
BID : A5SMW_I0OJJ
Read: GUEST DJ6UX
Subj: 2Line Orbital Elements
Path: DB0FHN<DB0FFL<OE2XZR<OE6XPE<DB0RKB<DK0WUE<PD0LPM<VE3CGR<VE3TOK<IR0AAB<
      I0OJJ
Sent: 260810/0037z @:I0OJJ.ITA.EU [Rome] $:A5SMW_I0OJJ

>From i0ojj@i0ojj.ampr.org Mon Aug 10 02:37:58 2026
Received: from i0ojj.ampr.org by i0ojj.ampr.org (JNOS2.0q.1) with SMTP
	id AA17066552 ; Mon, 10 Aug 2026 02:37:58 +0200
Received: by i0ojj.ampr.org with SMTP
	id AA17066548 ; Mon, 10 Aug 2026 02:25:20 +0200
Message-Id: <17066549@i0ojj.ampr.org>
>From: i0ojj@i0ojj.ampr.org

SB KEPS @ AMSAT  $ORB26222.1
2Line Orbital Elements 26222.AMSAT

QST de W1STR

AMSAT Orbital Elements for Amateur Satellites in TLE Format
>From Orbital Analysis Office
New England Sci-Tech STEM Education Center
Natick MA August 10, 2026
To all radio amateurs


These element sets describe the orbits of various satellites 
in use by the amateur radio community. For details see:
www.amsat.org/keplerian-elements-formats/

A daily update of element sets is available at:
www.amsat.org/tle/daily-bulletin.txt
or without bulletin text:
www.amsat.org/tle/dailytle.txt


AO-07
1 07530U 74089B   26221.79196649 -.00000029  00000-0  11042-3 0  9990
2 07530 101.9916 235.5984 0012453  30.6472 143.1716 12.53698958367237
UO-11
1 14781U 84021B   26221.84811027  .00000834  00000-0  90244-4 0  9998
2 14781  97.8106 186.8412 0008013  18.4922 341.6586 14.90911173265127
LO-19
1 20442U 90005G   26221.62450919  .00000040  00000-0  30993-4 0  9997
2 20442  98.8845 244.8996 0012423  53.1231 307.1090 14.34136761910056
AO-27
1 22825U 93061C   26221.77104332  .00000018  00000-0  23758-4 0  9996
2 22825  98.6845 289.1553 0007389 308.0391  52.0124 14.30954480714661
FO-29
1 24278U 96046B   26221.83808462 -.00000000  00000-0  38227-4 0  9997
2 24278  98.5200  63.3557 0349105 317.3618  40.0900 13.53276670480420
GO-32
1 25397U 98043D   26221.87034419  .00000013  00000-0  25862-4 0  9990
2 25397  99.0112 215.9930 0002332  75.0479 285.0957 14.24437500458970
ISS
1 25544U 98067A   26221.85937483  .00004201  00000-0  83247-4 0  9995
2 25544  51.6326  34.4681 0007373  30.2451 329.8962 15.49397757580072
NO-44
1 26931U 01043C   26221.87008802  .00000020  00000-0  38325-4 0  9992
2 26931  67.0503 105.4234 0005674 268.8243  91.2209 14.31973620298130
SO-50
1 27607U 02058C   26221.76215022  .00000532  00000-0  80590-4 0  9991
2 27607  64.5535 323.2125 0073685 252.6417 106.6621 14.83150661272408
CO-55
1 27844U 03031E   26221.56556494  .00000144  00000-0  81393-4 0  9996
2 27844  98.6757 229.4575 0010293  36.7942 323.3942 14.24364707199271
RS-22
1 27939U 03042A   26221.86701081  .00000765  00000-0  12573-3 0  9992
2 27939  98.3487  47.7513 0012545  97.0386  14.0065 14.73554518223453
CO-65
1 32785U 08021C   26221.86956995  .00002080  00000-0  13250-3 0  9990
2 32785  97.8320 204.4363 0008071 194.1133 165.9871 15.09903267993297
CO-66
1 32791U 08021J   26221.50754850  .00012759  00000-0  38442-3 0  9998
2 32791  97.7545 222.0284 0004888 110.0542 250.1227 15.34464918995469
RS-30
1 32953U 08025A   26221.77736027 -.00000020  00000-0 -21464-3 0  9993
2 32953  82.5072 322.1090 0019552 191.3469 168.7173 12.43181732826359
SRMSAT
1 37841U 11058D   26221.88058008  .00000324  00000-0  32219-4 0  9998
2 37841  19.9718  94.4683 0011763  75.1851  19.6059 14.11585714765419
ZACUBE-1
1 39417U 13066B   26221.85997100  .00002624  00000-0  20385-3 0  9997
2 39417  97.7992 184.4505 0043100  72.6981 287.8952 15.01492255688789
Delfi-N3xt
1 39428U 13066N   26221.77693823  .00004766  00000-0  41052-3 0  9998
2 39428  97.8298 142.0491 0074530  29.5474 330.9926 14.95677491682632
GOMX-1
1 39430U 13066Q   26221.84038454  .00000636  00000-0  10271-3 0  9993
2 39430  97.6464  58.9205 0126726 265.1523  93.5205 14.69594166677795
LO-74
1 39440U 13066AA  26221.84631815  .00000986  00000-0  95212-4 0  9991
2 39440  97.8933 171.0746 0056234 208.0515 151.7671 14.94097759685000
AO-73
1 39444U 13066AE  26221.87174391  .00005307  00000-0  32432-3 0  9995
2 39444  97.8315 194.4763 0036522  24.0103 336.2818 15.10163149687767
DTUSAT-2
1 40030U 14033W   26221.26263917  .00004266  00000-0  22812-3 0  9993
2 40030  98.0896 222.3924 0009350  61.6893 298.5280 15.15643721660723
LILACSAT-2
1 40908U 15049K   26221.84012515  .00013760  00000-0  22047-3 0  9994
2 40908  97.4617 260.7725 0008128  67.8431 292.3684 15.53184277604078
Lapan A3
1 41603U 16040E   26221.90230963  .00001854  00000-0  59665-4 0  9993
2 41603  97.1530 216.3048 0010231 171.7055 188.4360 15.33414261563046
CAS-2T
1 41847U 16066G   26221.84376403  .00000236  00000-0  43064-4 0  9993
2 41847  98.3794 296.9664 0340651 326.9366  31.0931 14.44802049512542
TechnoSat
1 42829U 17042E   26221.43530517  .00001824  00000-0  13159-3 0  9997
2 42829  97.4349  17.0960 0015922 272.1019  87.8384 15.05231953494714
AO-91
1 43017U 17073E   26221.57804052  .00006456  00000-0  27706-3 0  9993
2 43017  97.4637  87.7053 0149611 143.6575 217.4930 15.13399313473464
S-Net D
1 43186U 18014G   26221.69608451  .00002688  00000-0  13895-3 0  9991
2 43186  97.5300 126.1531 0007854 179.5723 180.5518 15.17117892466876
S-Net B
1 43187U 18014H   26221.70860774  .00002471  00000-0  12811-3 0  9999
2 43187  97.5306 126.1537 0008633 176.0104 184.1200 15.17086509466878
S-Net A
1 43188U 18014J   26221.69467089  .00002742  00000-0  14161-3 0  9991
2 43188  97.5315 126.3590 0008485 176.5176 183.6118 15.17126197466879
S-Net C
1 43189U 18014K   26221.77875352  .00002433  00000-0  12617-3 0  9998
2 43189  97.5333 126.5255 0010051 170.8841 189.2577 15.17076898465432
Ten-Koh
1 43677U 18084G   26221.78151273  .00000363  00000-0  31805-4 0  9998
2 43677  98.0746  56.4082 0008309 305.3339  54.7107 15.03128387424219
PO-101
1 43678U 18084H   26221.84978387  .00000801  00000-0  68484-4 0  9999
2 43678  98.1220  60.4172 0010996 359.6944   0.4270 15.00639188424269
QO-100
1 43700U 18090A   26221.85391850  .00000000  00000-0  00000+0 0  9993
2 43700   0.0279  98.5215 0002466  81.4824 111.5206  1.00270082 28218
MinXSS-2
1 43758U 18099A   26221.78304405  .00027940  00000-0  48740-3 0  9996
2 43758  97.4502 299.7734 0007437  79.5305 280.6784 15.50651229422422
AO-95
1 43770U 18099N   26221.67253081  .00007347  00000-0  27330-3 0  9992
2 43770  97.4351 281.7491 0009538 149.8257 210.3533 15.27766476421381
SNUSat 2
1 43782U 18099AA  26221.64480667  .00005127  00000-0  22328-3 0  9990
2 43782  97.4029 274.2224 0011849 107.4090 252.8443 15.22592971421169
SnugLite
1 43784U 18099AC  26221.72161942  .00006949  00000-0  25507-3 0  9998
2 43784  97.3834 275.5025 0004668 100.9549 259.2216 15.28253349421499
ITASat 1
1 43786U 18099AE  26221.69675892  .00004178  00000-0  19867-3 0  9994
2 43786  97.3997 272.1508 0013169 158.4045 201.7748 15.19660478421032
EAGLET 1
1 43790U 18099AJ  26221.68458763  .00002547  00000-0  14649-3 0  9995
2 43790  97.4199 269.9372 0011873 153.3987 206.7856 15.13299607420427
ESEO
1 43792U 18099AL  26221.66012503  .00000988  00000-0  74853-4 0  9994
2 43792  97.3936 256.7545 0012750 145.4501 214.7557 15.04382730419843
JO-97
1 43803U 18099AX  26221.69905382  .00011933  00000-0  35019-3 0  9998
2 43803  97.4097 284.7685 0007066  86.4386 273.7665 15.35289916421833
Suomi 100
1 43804U 18099AY  26221.67400470  .00008442  00000-0  29644-3 0  9993
2 43804  97.4158 281.8997 0011425  93.0498 267.2050 15.29592890421598
ISAT
1 43879U 18111D   26221.79826264  .00124173  00000-0  73660-3 0  9993
2 43879  97.5817 161.6040 0009355 108.0293 252.1992 15.77621455419583
UWE-4
1 43880U 18111E   26221.74704428  .00023054  00000-0  42109-3 0  9997
2 43880  97.5828 152.7338 0009668 118.9299 241.2922 15.49362049419066
Sparrow
1 43881U 18111F   26221.81266779  .00915095  46952-3  10928-2 0  9995
2 43881  97.5986 168.7559 0011461 155.2142 204.9693 16.08369758419879
Prox-1
1 44339U 19036A   26221.78990785  .00008272  00000-0  77272-3 0  9995
2 44339  23.9941 115.8488 0005819 297.0117  62.9788 14.91767160381484
Taurus 1
1 44530U 19059C   26221.79416409  .00003075  00000-0  49168-3 0  9999
2 44530  98.6462  29.9839 0009443 138.5893 221.6030 14.72601474366533
TO-108
1 44881U 19093C   26221.82607980  .00000837  00000-0  10032-3 0  9997
2 44881  97.7499 292.7427 0011977 271.2841  88.7003 14.86593819359383
RS-44
1 44909U 19096E   26221.71472021  .00000001  00000-0 -43441-4 0  9990
2 44909  82.5235 304.1430 0217746  19.5257 341.4022 12.79748760309193
SALSAT
1 46495U 20068K   26221.57290565  .00004585  00000-0  15815-3 0  9991
2 46495  97.8875 227.9215 0011373 112.0308 248.2141 15.30490514323521
CSS (TIANHE-1)
1 48274U 21035A   26221.84723466  .00014603  00000-0  18665-3 0  9992
2 48274  41.4697 356.2595 0001093 264.0637  96.0076 15.58937645301548
TeikyoSat 4
1 49396U 21102B   26221.61266603  .00001104  00000-0  72223-4 0  9996
2 49396  97.3656 249.0189 0013678 107.2127 253.0601 15.09676354260783
Z-Sat
1 49399U 21102E   26221.83945192  .00003085  00000-0  15159-3 0  9994
2 49399  97.3307 255.5382 0018049  62.9505 297.3569 15.18639217261580
KOSEN 1
1 49402U 21102H   26221.60740292  .00004630  00000-0  17417-3 0  9994
2 49402  97.3160 262.7412 0013954  26.3947 333.8001 15.27539174262174
HO-113
1 50466U 21131B   26221.85361235  .00000283  00000-0  10095-3 0  9996
2 50466  98.4977 313.9534 0003023 309.2738  50.8183 14.41401044242843
SNUGLITE 2
1 52899U 22065F   26221.66881501  .00000452  00000-0  94690-4 0  9999
2 52899  98.2271   6.4279 0006855 206.8376 153.2473 14.64433996218823
UmKA 1 (RS40S)
1 57172U 23091G   26221.83915466  .00003509  00000-0  15955-3 0  9997
2 57172  97.5016 280.3383 0010845 294.9417  65.0691 15.21363216172167
CubeBel-2 (EU11S)
1 57175U 23091K   26221.82052838  .00008021  00000-0  27550-3 0  9992
2 57175  97.5017 285.5516 0007690 285.2132  74.8258 15.30370152172509
RS-38S
1 57189U 23091Z   26221.79900411  .00011338  00000-0  30925-3 0  9997
2 57189  97.5061 292.4098 0005930 225.8851 134.1906 15.37603943172928
